Find Local Weather

World > North America > United States > California

South Lake Tahoe, California Regional Weather

Lat: 38.94N, Lon: 119.98W
Wx Zone: CAZ072
Feedback
Expires:201809201900;;941468
ASUS45 KREV 201810
RWRNV 
NEVADA REGIONAL WEATHER ROUNDUP
NATIONAL WEATHER SERVICE RENO NV
1100 AM PDT THU SEP 20 2018

NOTE: "FAIR" INDICATES FEW OR NO CLOUDS BELOW 12,000 FEET WITH NO
SIGNIFICANT WEATHER AND/OR OBSTRUCTIONS TO VISIBILITY.


NVZ002-CAZ072-073-201900-
NORTHERN AND CENTRAL SIERRA
  
CITY           SKY/WX    TMP DP  RH WIND       PRES   REMARKS
S. LAKE TAHOE  SUNNY     63  27  25 VRB5      30.16S                  
6HR MIN TEMP:  29; 6HR MAX TEMP:  63;                                

TRUCKEE        SUNNY     57  23  26 N3        30.17S                  
SQUAW VLY 8000 NOT AVBL                                               
BLUE CANYON    SUNNY     70  26  19 VRB5      30.09S                  
MAMMOTH LAKES  FAIR      64  16  15 SE6       30.23S                  
6HR MIN TEMP:  37; 6HR MAX TEMP:  64;                                

BRIDGEPORT     FAIR      63  21  20 VRB3      30.17F                  
$$


SKY/WX - Weather  TMP - Temperature  DP - Dew Point  RH - Relative Humidity
WIND - Wind Direction/Speed PRES - Barometric Pressure